Regional Weather Roundup
Issued by NWS Upton, NY

Current Version | Previous Version | Text Only | Print | Product List | Glossary On
Versions: 1 2 3 4 5 6 7 8 9 10 11 12 13 14 15 16 17 18 19 20 21 22 23 24 25 26 27 28 29 30 31 32 33 34 35 36 37 38 39 40 41 42 43 44 45 46 47 48 49 50
000
ASUS41 KOKX 250205
RWROKX

Regional Weather Roundup
National Weather Service New York NY
1000 PM EDT THU MAY 24 2018

Note: "FAIR" indicates few or no clouds below 12,000 feet with no
significant weather and/or obstructions to visibility.

NYZ071-072-176-178-NJZ106-104-250300-
New York City Metro Area

CITY           SKY/WX    TMP DP  RH WIND       PRES   REMARKS
Central Park   FAIR      71  43  36 VRB6      30.11R
Bronx Bot Gard   N/A     72  43  35 S1        30.09R
Bronx Lehman C   N/A     75  43  31 SW3         N/A
LaGuardia Arpt FAIR      75  41  29 S10G17    30.08R
Queens College   N/A     68  52  56 S8          N/A
Kennedy Intl   FAIR      65  52  62 S13       30.11R
Breezy Point     N/A     64 N/A N/A W3          N/A
Brooklyn Coll    N/A     72  43  35 S7          N/A
Staten Island    N/A     70  41  35 S7          N/A
Newark/Liberty FAIR      72  43  35 S15       30.08R
Teterboro      FAIR      72  45  37 S8        30.07R
$$

NYZ177-179-078>081-250300-
Long Island New York

CITY           SKY/WX    TMP DP  RH WIND       PRES   REMARKS
Jones Beach      N/A     61 N/A N/A SW7G15      N/A
Wantagh          N/A     63  52  67 SW8         N/A
Hempstead        N/A     66  43  42 S3        30.12S
Matinecock Pt    N/A     68 N/A N/A SW12        N/A
Farmingdale    FAIR      63  47  55 SW10      30.11R
MacArthur/ISP  FAIR      63  50  62 SW10      30.11R
Stony Brook      N/A     64  45  48 S6          N/A
Shirley        FAIR      62  49  62 SW7       30.11S
Mt Sinai Harb    N/A    N/A N/A N/A S13         N/A
Westhampton    FAIR      56  50  80 S3        30.13S
East Hampton   FAIR      52  52  99 S5        30.13R
Southold         N/A     55  55 100 S6          N/A
Montauk          N/A     53  53 100 S7        30.15R
$$

NYZ052-065-067-250300-
Hudson Valley

CITY           SKY/WX    TMP DP  RH WIND       PRES   REMARKS
White Plains   FAIR      65  43  44 S5        30.08R
Larchmont Harb   N/A     63 N/A N/A SW3         N/A
Croton On Huds   N/A     72 N/A N/A MISG        N/A
Somers           N/A     66  45  45 S1          N/A
Brewster         N/A     63  45  51 SW1         N/A
Newburgh       CLEAR     66  52  59 VRB5      30.08R
Montgomery     FAIR      71  48  43 NW5       30.06R
Otisville        N/A     61  54  77 NW1         N/A
Warwick          N/A     61  54  77 NE1         N/A
Suffern          N/A     66  46  48 CALM        N/A
Poughkeepsie   FAIR      62  52  69 CALM      30.05R
Albany         FAIR      67  44  43 SW6       30.05R
$$

NJZ001-105-106-008-010-013-015-019>022-104-250300-
New Jersey

CITY           SKY/WX    TMP DP  RH WIND       PRES   REMARKS
Newark/Liberty FAIR      72  43  35 S15       30.08R
Teterboro      FAIR      72  45  37 S8        30.07R
Caldwell       FAIR      71  49  45 S5        30.08R
Somerville     FAIR      61  55  81 CALM      30.08R
Linden         FAIR      72  41  33 SW3       30.09R
Perth Amboy      N/A     70 N/A N/A SW10        N/A
Sussex         FAIR      61  54  77 CALM      30.09R
Andover          N/A     62  56  80 S3        30.10R
Trenton        FAIR      69  49  48 S7        30.10R
Millville      FAIR      64  53  67 VRB3      30.14R
Atlantic City  FAIR      65  53  65 S6        30.14S
Wrightstown    FAIR      65  42  43 SW8       30.10R
Toms River     FAIR      64  46  52 SW7       30.13S
Belmar         FAIR      67  39  35 S9        30.13R
$$

PAZ047>061-062-071-250300-
Eastern Pennsylvania

CITY           SKY/WX    TMP DP  RH WIND       PRES   REMARKS
Philadelphia   FAIR      69  47  45 SW8       30.13R
Allentown      FAIR      67  51  56 SW6       30.10R
Scranton       FAIR      67  49  52 E6        30.10S
$$

CTZ002-004>006-009-010-012-RIZ004-006-007-MAZ004-011-015-250300-
Southern New England

 In CT

CITY           SKY/WX    TMP DP  RH WIND       PRES   REMARKS
Bradley Intl   FAIR      62  54  74 S9        30.08R
Hartford       FAIR      59  53  80 S9        30.09R
Danbury        FAIR      67  44  43 CALM      30.09R
Wtrbury/Oxford FAIR      60  51  72 S7        30.11R
Norwalk Harbor   N/A     63 N/A N/A E2          N/A
Bridgeport     FAIR      58  53  84 E7        30.10R
Meriden        FAIR      60  52  74 S6        30.10R
New Haven      FAIR      57  53  86 E8        30.11R
Chester        CLOUDY    54  52  94 SE3       30.12S FOG
Groton         FOG       51  51 100 S7        30.13S VSB 3/4
Willimantic    FAIR      55  51  86 S6        30.12R

 In RI

CITY           SKY/WX    TMP DP  RH WIND       PRES   REMARKS
Providence     FAIR      53  50  89 S8        30.13R
Block Island   LGT RAIN  51  51 100 S9        30.14R FOG
Westerly       FOG       52  52 100 S7        30.15R VSB 1

In MA

CITY           SKY/WX    TMP DP  RH WIND       PRES   REMARKS
Boston         FAIR      57  47  69 SW16      30.07F
Worcester      FAIR      56  49  77 SW12      30.08S
Westfield      FAIR      63  53  70 S8        30.06R
Provincetown   FAIR      53  48  83 S15       30.11S
Nantucket      FAIR      50  50 100 S7        30.14R
$$

ANZ330-335-338-340-345-350-353-355-250300-
Coastal Marine Observations


STATION/POSITION TIME  SKY/WX   TEMP    WIND        PRES    VSBY  WAVE
                                AIR SEA DIR/SP/G                  HT/PER
                 (UTC)          (F)     (DEG/KT/KT) (MB)    (MI)  (FT/S)
NY Harb Entrance 0150            61 56  200/ 16/ 19 1019.3          2/ 4
20 S Fire Island 0150            59 55  200/ 10/ 12 1019.7          2/ 8
23 SSW Montauk P 0150            53 55  180/ 14/ 16 1020.3          2/ 3
15 E Barnegat Li 0130               59                N/A           2/ 8
Hudson Canyon    0150            58 55  200/  8/ 10 1020.2          2/ 8
Kings Point      0124            67 59  200/ 11/ 12 1019.7
Execution Rocks  NOT AVBL
Western LI Sound 0120            67     210/  8/ 12   N/A           1
Central LI Sound 0130            57     110/  8/ 10   N/A           1
Robbins Reef     0130            73     210/ 15/ 19 1018.9
$$


>>>>>>>>>>>>>>>>>>>>>>>>>>>> KEY <<<<<<<<<<<<<<<<<<<<<<<<<<<
>                                                          <
>     SKY/WX - Sky Condition/Present Weather               <
>     TMP    - Temperature in Fahrenheit                   <
>     DP     - Dew Point in Fahrenheit                     <
>     RH     - Relative Humidity in Percent                <
>     WIND   - Direction (from) and Speed in MPH           <
>     PRES   - Mean Sea Level Pressure (inches of Hg)      <
>     WCI    - Wind Chill Index                            <
>     VSB    - Visibility in Miles                         <
>     HX     - Heat Index                                  <
>     TC     - Temperature in Celsius                      <
>     VRB    - Varibale Wind Direction                     <
>                                                          <
>>>>>>>>>>>>>>>>>>>>>>>>>>>> KEY <<<<<<<<<<<<<<<<<<<<<<<<<<<



USA.gov is the U.S. government's official web portal to all federal, state and local government web resources and services.